Location: Newark
(7.0858°N, 171.3717°E)
Time: 12:06:45
(UTC+00:00)

Vanguard 1 Rocket - Pass Details

Date: 30 November 2020
Orbit: 655 x 4222 km, 34.3° (Epoch: 23 January)

Event Time Altitude Azimuth Distance (km) Brightness Sun altitude
Exits shadow 15:50:51 28° 344° (NNW) 5,268 10.9 -37.9°
Maximum altitude 15:51:53 28° 348° (NNW) 5,194 10.9 -37.7°
Drops below altitude 10° 16:06:13 10° 43° (NE) 5,298 11.5 -34.4°
Sets 16:10:31 0° 55° (NE) 5,804 11.9 -33.4°
